Location: Alphaba - Cockrum - Ingrams Mill Volunteer Fire Department Station 2
(34.7915°N, 89.7598°W)
Time: 08:48:26
(UTC+00:00)

SKYMED 2 - Pass Details

Date: 11 December 2025
Orbit: 622 x 623 km, 97.9° (Epoch: 25 January)

Event Time Altitude Azimuth Distance (km) Brightness Sun altitude
Exits shadow 23:26:03 - 23° (NNE) 2,827 6.5 -7.8°
Reaches altitude 10° 23:28:13 10° 32° (NNE) 1,997 5.7 -8.2°
Maximum altitude 23:32:10 34° 98° (E) 1,032 4.3 -9.0°
Drops below altitude 10° 23:36:05 10° 163° (SSE) 1,983 6.2 -9.7°
Sets 23:38:26 0° 173° (S) 2,884 7.2 -10.2°
